Retour au catalogue

FENGYUN 1C DEB

ActifPO
NORAD 30035·DEBRIS·🇨🇳 China

Lancé May 10, 1999 depuis Taiyuan Satellite Launch Center

Loading…

Prochains Passages (prochaines 24 heures)

TLE

FraisSource: Space-Track

Époque: Sep 14, 2026, 18:45 UTC

1 30035U 99025NL  26257.78141091  .00000121  00000-0  54725-4 0  9990
2 30035  99.2812 198.9857 0114251 338.3833  50.7492 14.37094224 30899

Suivez FENGYUN 1C DEB en temps réel avec AllMySat

Download on the App Store